SCP
0 0 0 1 1 1 2 3 3 3 2 2 2 1 1 2 1 1 2 2 2 2 2 1 1 1 1 0 0 0 0 0 0 0 0 0 0 0 0 0 0 0 0
0 0 0 2 1 1 1 1 1 2 2 3 1 1 1 1 0 1 2 3 2 2 1 1 1 0 0 0 0 0 0 0 0 0 0 0 0 0 0 0 0 0 0
0 0 0 1 1 1 1 1 1 2 2 2 1 2 3 2 2 2 2 2 1 1 1 0 0 0 0 0 0 0 0 0 0 0 0 0 0 0 0 0 0 0 0
0 0 1 1 1 0 0 1 1 1 1 2 2 2 1 1 2 2 3 2 1 1 1 0 0 0 0 0 0 0 0 0 0 0 -0 -0 0 0 0 0 0 0 0
0 0 1 0 0 0 0 1 1 1 1 2 1 1 1 1 1 1 1 1 1 1 0 0 0 0 0 0 0 0 -0 -0 -0 -0 -0 -0 0 0 0 0 0 0 0
0 1 0 0 0 0 0 0 0 1 1 1 1 1 1 1 2 1 1 1 0 0 0 0 0 0 0 -0 -0 -0 -0 0 0 0 0 0 0 -0 0 0 0 0 0
0 1 0 0 0 0 0 0 0 1 1 1 1 1 1 1 1 1 1 0 0 0 0 0 0 0 -0 -0 -0 -0 -0 0 0 -0 0 -0 0 0 0 0 0 0 0
1 -0 0 0 0 0 0 0 0 0 0 0 0 0 1 0 0 0 0 0 0 0 0 0 0 -0 -0 -0 -0 -0 -0 0 0 -0 -0 -0 -0 -0 0 -0 0 0 0
0 0 0 0 0 0 0 0 0 0 0 0 0 0 0 0 0 0 0 0 0 0 -0 -0 -0 -0 -0 -0 0 0 0 0 0 0 0 -0 -0 -0 -0 0 0 0 0
-0 0 0 0 0 0 0 0 0 0 0 0 0 0 0 0 0 0 0 0 0 0 -0 -0 -0 -0 -0 -0 0 0 0 0 0 0 -0 0 0 0 0 0 0 0 0
0 0 0 0 -0 -0 0 0 0 0 0 0 0 0 0 0 0 0 0 0 0 0 -0 -0 -0 0 -0 -0 0 0 0 0 0 0 0 0 -0 -0 0 0 0 0 0
-0 0 0 -0 -0 -0 -0 0 0 0 0 0 0 0 0 0 0 0 0 0 -0 0 -0 -0 0 0 -0 -0 0 0 0 0 -0 0 0 0 0 0 0 0 0 0 0
-0 -0 -0 -0 -0 -0 -0 0 0 -0 0 0 0 0 0 0 0 0 0 0 -0 0 -0 -0 0 0 -0 -0 -0 0 0 0 0 0 0 0 0 -0 0 0 0 0 0
-0 -0 -0 -0 -0 -0 -0 -0 -0 -0 0 0 0 0 0 0 0 0 0 0 0 0 0 -0 0 -0 -0 0 -0 -0 0 0 0 0 0 0 0 -0 -0 0 0 0 0
-0 -0 -0 -0 -0 -0 -0 -0 -0 -0 -0 0 0 -0 0 0 0 0 0 0 0 0 0 0 0 0 -0 -0 -0 0 -0 0 0 0 0 0 -0 -0 -0 0 -0 -0 0
0 -0 -0 -0 -0 -0 -0 -0 -0 -0 -0 -0 -0 -0 -0 0 -0 0 0 0 0 0 0 0 0 -0 0 -0 -0 0 0 0 -0 -0 -0 -0 -0 -0 -0 -0 -0 -0 0
0 -0 -0 -0 -0 -0 -0 -0 -0 -0 -0 -0 -0 -0 -0 0 0 0 0 0 0 -0 0 0 -0 -0 0 -0 -0 -0 -0 0 0 -0 -0 -0 0 -0 0 -0 -0 -0 0
0 0 0 -0 -0 -0 -0 -0 -0 -0 -0 -0 -0 -0 -0 -0 0 0 0 0 0 -0 0 0 -0 -0 0 -0 -0 0 0 -0 -0 -0 -0 -0 -0 -0 0 0 0 0 0
0 0 0 -0 -0 -0 -0 -0 -0 -0 -0 -0 -0 -0 -0 -0 -0 0 0 0 0 0 -0 0 -0 -0 0 0 0 0 0 -0 -0 -0 -0 -0 -0 -0 -0 -0 -0 0 0
0 0 0 -0 -0 -0 -0 -0 -0 -0 -0 -0 -0 -0 -0 -0 -0 0 0 0 0 0 0 0 -0 -0 -0 -0 -0 0 0 0 0 0 -0 -0 -0 -0 -0 -0 -0 0 0
1 0 0 -0 -0 -0 -0 -0 -0 -0 -0 -0 -0 -0 -0 -0 -0 0 0 0 0 0 -0 -0 0 0 0 0 0 0 0 0 0 0 -0 0 -0 0 0 0 0 0 0
0 0 0 0 -0 -0 -0 -0 -0 -0 -0 -0 -0 -0 -0 -0 -0 0 0 0 0 0 -0 -0 0 0 -0 -0 -0 0 0 0 -0 -0 -0 0 0 0 0 -0 0 -0 0
0 0 0 0 0 -0 0 -0 -0 -0 -0 -0 -0 -0 -0 -0 -0 0 0 0 0 0 0 0 0 0 0 0 0 0 -0 -0 -0 -0 0 0 -0 -0 -0 -0 0 0 0
0 0 0 0 -0 -0 -0 0 -0 -0 -0 -0 -0 -0 -0 -0 -0 0 0 0 0 0 0 0 0 0 0 0 0 0 0 0 0 0 -0 -0 0 0 -0 -0 -0 0 -0
0 0 0 0 -0 -0 -0 0 -0 -0 -0 -0 -0 -0 -0 0 -0 -0 0 0 0 0 0 0 0 0 0 0 0 0 0 0 0 0 0 0 0 0 -0 -0 -0 0 -0
1 1 1 0 -0 -0 -0 -0 -0 -0 -0 -0 -0 -0 -0 0 0 0 0 -0 -0 -0 -0 0 0 0 0 -0 -0 -0 -0 0 0 -0 0 0 -0 -0 -0 -0 0 -0 -0
Wind_Speed_500mb
55 47 55 54 35 43 42 44 45 54 59 49 43 40 42 42 30 29 28 30 29 38 34 35 33 34 40 31 28 27 28 31 29 27 27 30 27 30 34 40 36 37 28
50 49 48 34 37 36 32 38 43 48 52 48 36 39 36 32 22 25 26 30 37 39 30 31 31 23 25 22 23 23 24 29 29 33 22 14 22 26 32 30 42 43 38
75 73 34 32 28 23 24 28 35 46 49 39 37 33 36 29 32 31 28 31 31 22 28 27 26 24 18 16 16 21 25 28 27 34 20 12 13 29 34 35 32 36 41
82 46 41 34 23 19 23 30 41 42 42 36 36 39 28 24 18 18 23 24 25 20 27 23 17 18 19 21 20 21 21 21 20 24 36 23 9 19 14 33 31 32 30
46 39 42 32 25 29 30 34 38 42 37 42 31 31 26 16 21 12 12 15 25 29 27 21 21 22 23 18 13 12 19 20 26 31 33 26 17 29 20 19 27 22 18
45 32 37 35 35 32 36 39 40 43 43 42 29 27 18 19 14 17 18 25 28 22 18 19 19 18 17 11 11 14 15 17 24 32 25 18 13 14 9 14 25 23 21
39 53 49 43 41 43 44 43 47 42 37 34 27 23 19 19 15 12 12 21 18 12 12 22 23 19 11 12 18 18 15 14 23 28 26 18 17 15 19 13 27 27 26
56 51 45 47 48 48 47 45 46 37 33 26 21 17 14 4 4 14 14 13 9 6 11 20 18 13 12 11 16 12 10 12 14 17 17 9 9 9 14 33 28 29 27
48 49 49 49 52 52 49 47 42 35 31 26 22 17 9 7 8 10 15 6 4 4 6 12 12 10 16 15 11 9 5 4 10 14 16 18 13 12 16 29 35 31 33
49 48 51 53 53 51 48 44 38 35 31 25 20 15 8 6 9 7 2 2 5 7 5 8 11 11 18 14 11 7 5 3 6 8 13 17 19 15 16 27 31 26 29
53 54 52 55 53 50 47 44 37 34 31 23 19 12 8 4 3 5 5 4 7 16 9 14 13 15 14 13 9 5 7 3 6 5 6 8 15 13 14 27 30 29 29
56 56 56 57 54 50 45 41 37 34 29 24 22 13 8 4 9 9 7 5 7 14 15 13 17 15 14 10 8 7 10 6 4 5 3 11 7 8 20 23 23 22 15
57 56 58 56 54 50 43 40 38 34 29 28 21 18 5 6 11 9 7 5 10 20 15 13 16 14 13 11 10 9 7 8 4 7 11 9 16 21 22 21 12 15 15
58 58 58 55 52 49 44 41 37 34 31 31 22 17 10 7 8 10 12 8 10 23 23 14 16 16 12 10 10 7 10 11 12 12 6 13 16 17 19 21 15 14 23
58 59 57 55 52 49 44 40 38 35 33 29 27 17 10 14 9 12 9 18 10 20 20 23 20 17 15 13 12 12 15 12 11 12 11 12 13 12 15 16 19 18 36
56 57 53 52 51 49 45 42 40 37 34 31 28 15 22 16 8 4 12 20 10 18 21 19 22 18 14 12 18 11 15 11 10 10 7 8 6 12 17 14 13 18 41
53 56 51 52 51 48 44 44 42 38 35 32 26 24 22 12 12 7 9 19 18 20 18 20 19 16 13 19 17 15 17 11 12 16 16 10 5 15 17 19 17 23 50
48 53 52 52 51 46 45 41 42 39 35 32 29 28 21 20 16 6 3 19 17 19 20 21 17 12 19 23 18 14 15 14 17 16 15 16 17 17 22 31 33 43 64
47 53 51 53 51 49 48 45 43 40 36 33 31 28 32 21 20 11 7 15 11 12 24 22 16 18 25 24 24 23 19 20 19 15 14 10 13 19 23 35 45 45 61
41 52 52 53 54 51 51 47 45 42 39 35 32 30 31 29 24 16 8 12 8 13 23 24 17 22 24 20 18 15 18 22 27 21 22 21 28 28 28 32 37 45 59
4 55 54 55 56 56 53 50 46 44 39 37 34 32 33 31 23 17 17 7 13 19 21 27 20 22 16 13 15 14 17 18 27 30 29 34 37 34 38 38 46 45 51
10 47 57 57 59 58 57 52 49 43 41 39 38 37 32 30 26 18 25 12 9 13 31 32 28 21 21 19 17 25 19 21 35 34 33 37 37 34 44 39 43 44 50
16 14 53 57 60 59 58 54 50 46 44 43 42 43 34 37 31 22 32 16 17 26 37 34 28 29 26 21 24 36 28 31 41 34 38 35 37 42 41 41 47 46 56
22 25 49 58 61 60 57 53 52 48 47 48 47 46 45 36 29 26 32 23 21 23 27 29 24 32 32 30 38 40 35 39 32 34 39 37 39 35 48 46 44 41 46
23 32 36 59 60 62 59 55 54 52 51 53 51 49 50 42 36 31 30 28 27 25 32 30 26 32 41 39 41 41 36 35 31 38 40 37 34 38 47 47 39 33 28
21 28 30 60 58 62 62 59 57 58 58 58 57 53 49 54 42 43 36 35 30 27 21 36 22 12 28 43 43 42 38 26 27 34 36 28 26 36 43 47 32 26 40
Wind_Direction_500mb
258 261 273 279 252 252 240 238 224 212 216 214 203 200 201 219 222 223 231 239 244 241 270 267 273 282 279 275 263 253 256 233 234 235 243 245 241 224 212 213 221 223 221
295 272 277 240 239 249 249 234 217 213 207 204 202 197 201 223 225 227 238 236 239 276 262 271 280 279 278 277 258 249 238 234 231 230 227 229 222 214 206 219 223 222 215
276 273 260 226 229 241 234 209 195 195 200 195 180 198 202 206 204 212 236 261 267 281 259 268 272 273 263 264 254 242 240 242 240 224 196 176 213 208 212 225 225 231 216
253 250 236 198 202 203 193 187 187 196 180 181 185 197 196 210 227 225 225 236 266 271 270 254 262 261 271 264 260 251 236 221 206 209 203 190 240 174 214 214 210 211 198
260 256 168 175 170 176 171 177 183 165 168 178 193 196 189 218 239 230 252 275 269 278 269 245 249 259 266 260 232 209 210 212 202 207 212 237 221 215 207 192 197 199 193
241 190 151 154 157 160 166 173 166 154 183 170 183 185 203 194 183 208 236 265 278 271 247 220 254 262 257 218 175 223 224 225 212 209 219 262 216 221 193 195 178 173 168
228 145 151 150 157 161 166 167 158 173 178 175 186 196 198 202 217 265 277 286 289 275 225 205 235 257 232 173 208 226 215 204 204 204 216 231 225 224 216 195 188 160 145
136 143 154 155 159 163 164 162 166 171 168 174 174 180 179 199 252 245 259 289 280 286 192 211 230 233 171 176 228 228 204 210 208 211 205 215 200 196 273 214 186 149 141
139 148 157 158 162 164 165 168 167 167 168 171 175 168 175 202 237 259 267 262 257 211 187 202 212 188 151 199 230 185 175 204 221 217 224 218 197 197 189 192 190 183 151
148 155 157 160 162 164 166 167 167 169 167 171 168 158 189 239 268 257 280 159 122 115 168 180 173 135 159 204 210 185 187 170 177 220 216 229 245 251 209 181 168 170 158
155 158 159 160 161 163 166 166 167 168 165 166 154 169 179 282 258 135 152 230 165 156 152 125 117 141 161 209 235 190 141 160 262 280 291 251 222 224 197 172 167 168 166
158 159 161 161 162 165 165 167 170 167 165 158 166 146 154 237 167 126 115 127 153 145 132 130 142 148 164 182 193 164 184 216 297 161 135 150 162 168 154 158 152 166 167
156 159 161 164 164 166 166 169 170 168 165 166 158 148 154 83 141 153 147 145 147 144 157 136 142 171 151 166 163 169 165 110 140 118 135 119 121 121 139 146 140 170 154
156 160 164 167 167 167 169 170 170 170 167 172 163 154 155 106 143 145 132 124 118 150 139 148 129 118 131 132 142 147 122 119 123 129 151 152 108 124 154 162 173 171 176
160 164 169 166 168 168 170 170 170 171 170 169 170 160 152 112 111 108 141 132 150 150 153 156 139 142 148 163 149 140 150 155 152 135 172 157 154 157 166 171 167 164 159
167 164 170 167 171 169 171 172 173 171 170 168 169 165 158 128 117 61 134 138 142 151 150 160 150 155 172 200 161 130 141 130 158 162 146 112 148 141 136 158 168 166 161
168 168 171 171 173 172 176 175 175 171 169 171 173 151 166 142 148 145 107 152 152 145 147 143 151 184 180 159 156 134 130 117 110 111 117 118 135 136 137 138 140 145 166
178 167 170 172 173 174 177 175 175 172 170 171 170 164 177 137 154 162 132 161 161 157 159 144 168 184 155 149 151 131 129 128 118 133 147 157 146 138 145 140 143 151 162
177 166 173 171 173 176 179 177 176 174 171 172 171 169 165 139 152 148 119 146 145 135 147 158 165 150 144 141 134 126 145 146 158 148 154 193 181 163 156 154 144 154 166
168 167 168 171 173 177 179 179 178 177 174 174 172 170 172 148 161 156 145 123 145 145 160 165 150 150 146 139 127 123 136 139 145 136 127 122 118 126 150 157 153 159 166
345 168 170 173 175 179 181 182 181 180 177 173 169 168 171 156 172 159 149 140 137 156 161 154 148 157 163 158 136 122 162 158 137 131 120 111 114 116 139 138 144 153 160
308 170 164 171 176 181 184 185 185 180 177 174 171 168 177 159 177 164 146 152 128 142 147 150 153 159 160 149 128 133 138 140 151 139 121 117 119 121 130 133 141 141 148
289 219 169 172 178 183 188 188 186 180 178 176 175 173 168 176 176 173 154 166 129 124 144 158 162 159 166 146 131 135 114 123 141 132 128 124 122 121 129 129 131 138 155
260 247 177 172 176 185 190 189 186 182 180 176 177 176 171 183 172 176 157 165 171 146 150 161 175 168 169 158 147 146 130 135 137 139 141 139 136 130 132 130 128 138 152
252 235 202 176 181 186 189 189 187 184 184 179 179 182 179 177 172 173 166 178 172 200 177 177 186 189 180 175 165 165 150 148 144 147 147 146 149 150 152 144 141 152 159
256 239 232 179 184 188 190 190 189 186 186 181 181 185 184 183 186 187 179 185 187 200 186 184 202 162 193 181 178 166 150 151 162 162 160 151 162 165 164 160 153 178 181
Wind_Speed_850mb
55 47 55 54 35 43 42 44 45 54 59 49 43 40 42 42 30 29 28 30 29 38 34 35 33 34 40 31 28 27 28 31 29 27 27 30 27 30 34 40 36 37 28
50 49 48 34 37 36 32 38 43 48 52 48 36 39 36 32 22 25 26 30 37 39 30 31 31 23 25 22 23 23 24 29 29 33 22 14 22 26 32 30 42 43 38
75 73 34 32 28 23 24 28 35 46 49 39 37 33 36 29 32 31 28 31 31 22 28 27 26 24 18 16 16 21 25 28 27 34 20 12 13 29 34 35 32 36 41
82 46 41 34 23 19 23 30 41 42 42 36 36 39 28 24 18 18 23 24 25 20 27 23 17 18 19 21 20 21 21 21 20 24 36 23 9 19 14 33 31 32 30
46 39 42 32 25 29 30 34 38 42 37 42 31 31 26 16 21 12 12 15 25 29 27 21 21 22 23 18 13 12 19 20 26 31 33 26 17 29 20 19 27 22 18
45 32 37 35 35 32 36 39 40 43 43 42 29 27 18 19 14 17 18 25 28 22 18 19 19 18 17 11 11 14 15 17 24 32 25 18 13 14 9 14 25 23 21
39 53 49 43 41 43 44 43 47 42 37 34 27 23 19 19 15 12 12 21 18 12 12 22 23 19 11 12 18 18 15 14 23 28 26 18 17 15 19 13 27 27 26
56 51 45 47 48 48 47 45 46 37 33 26 21 17 14 4 4 14 14 13 9 6 11 20 18 13 12 11 16 12 10 12 14 17 17 9 9 9 14 33 28 29 27
48 49 49 49 52 52 49 47 42 35 31 26 22 17 9 7 8 10 15 6 4 4 6 12 12 10 16 15 11 9 5 4 10 14 16 18 13 12 16 29 35 31 33
49 48 51 53 53 51 48 44 38 35 31 25 20 15 8 6 9 7 2 2 5 7 5 8 11 11 18 14 11 7 5 3 6 8 13 17 19 15 16 27 31 26 29
53 54 52 55 53 50 47 44 37 34 31 23 19 12 8 4 3 5 5 4 7 16 9 14 13 15 14 13 9 5 7 3 6 5 6 8 15 13 14 27 30 29 29
56 56 56 57 54 50 45 41 37 34 29 24 22 13 8 4 9 9 7 5 7 14 15 13 17 15 14 10 8 7 10 6 4 5 3 11 7 8 20 23 23 22 15
57 56 58 56 54 50 43 40 38 34 29 28 21 18 5 6 11 9 7 5 10 20 15 13 16 14 13 11 10 9 7 8 4 7 11 9 16 21 22 21 12 15 15
58 58 58 55 52 49 44 41 37 34 31 31 22 17 10 7 8 10 12 8 10 23 23 14 16 16 12 10 10 7 10 11 12 12 6 13 16 17 19 21 15 14 23
58 59 57 55 52 49 44 40 38 35 33 29 27 17 10 14 9 12 9 18 10 20 20 23 20 17 15 13 12 12 15 12 11 12 11 12 13 12 15 16 19 18 36
56 57 53 52 51 49 45 42 40 37 34 31 28 15 22 16 8 4 12 20 10 18 21 19 22 18 14 12 18 11 15 11 10 10 7 8 6 12 17 14 13 18 41
53 56 51 52 51 48 44 44 42 38 35 32 26 24 22 12 12 7 9 19 18 20 18 20 19 16 13 19 17 15 17 11 12 16 16 10 5 15 17 19 17 23 50
48 53 52 52 51 46 45 41 42 39 35 32 29 28 21 20 16 6 3 19 17 19 20 21 17 12 19 23 18 14 15 14 17 16 15 16 17 17 22 31 33 43 64
47 53 51 53 51 49 48 45 43 40 36 33 31 28 32 21 20 11 7 15 11 12 24 22 16 18 25 24 24 23 19 20 19 15 14 10 13 19 23 35 45 45 61
41 52 52 53 54 51 51 47 45 42 39 35 32 30 31 29 24 16 8 12 8 13 23 24 17 22 24 20 18 15 18 22 27 21 22 21 28 28 28 32 37 45 59
4 55 54 55 56 56 53 50 46 44 39 37 34 32 33 31 23 17 17 7 13 19 21 27 20 22 16 13 15 14 17 18 27 30 29 34 37 34 38 38 46 45 51
10 47 57 57 59 58 57 52 49 43 41 39 38 37 32 30 26 18 25 12 9 13 31 32 28 21 21 19 17 25 19 21 35 34 33 37 37 34 44 39 43 44 50
16 14 53 57 60 59 58 54 50 46 44 43 42 43 34 37 31 22 32 16 17 26 37 34 28 29 26 21 24 36 28 31 41 34 38 35 37 42 41 41 47 46 56
22 25 49 58 61 60 57 53 52 48 47 48 47 46 45 36 29 26 32 23 21 23 27 29 24 32 32 30 38 40 35 39 32 34 39 37 39 35 48 46 44 41 46
23 32 36 59 60 62 59 55 54 52 51 53 51 49 50 42 36 31 30 28 27 25 32 30 26 32 41 39 41 41 36 35 31 38 40 37 34 38 47 47 39 33 28
21 28 30 60 58 62 62 59 57 58 58 58 57 53 49 54 42 43 36 35 30 27 21 36 22 12 28 43 43 42 38 26 27 34 36 28 26 36 43 47 32 26 40
Wind_Direction_850mb
258 261 273 279 252 252 240 238 224 212 216 214 203 200 201 219 222 223 231 239 244 241 270 267 273 282 279 275 263 253 256 233 234 235 243 245 241 224 212 213 221 223 221
295 272 277 240 239 249 249 234 217 213 207 204 202 197 201 223 225 227 238 236 239 276 262 271 280 279 278 277 258 249 238 234 231 230 227 229 222 214 206 219 223 222 215
276 273 260 226 229 241 234 209 195 195 200 195 180 198 202 206 204 212 236 261 267 281 259 268 272 273 263 264 254 242 240 242 240 224 196 176 213 208 212 225 225 231 216
253 250 236 198 202 203 193 187 187 196 180 181 185 197 196 210 227 225 225 236 266 271 270 254 262 261 271 264 260 251 236 221 206 209 203 190 240 174 214 214 210 211 198
260 256 168 175 170 176 171 177 183 165 168 178 193 196 189 218 239 230 252 275 269 278 269 245 249 259 266 260 232 209 210 212 202 207 212 237 221 215 207 192 197 199 193
241 190 151 154 157 160 166 173 166 154 183 170 183 185 203 194 183 208 236 265 278 271 247 220 254 262 257 218 175 223 224 225 212 209 219 262 216 221 193 195 178 173 168
228 145 151 150 157 161 166 167 158 173 178 175 186 196 198 202 217 265 277 286 289 275 225 205 235 257 232 173 208 226 215 204 204 204 216 231 225 224 216 195 188 160 145
136 143 154 155 159 163 164 162 166 171 168 174 174 180 179 199 252 245 259 289 280 286 192 211 230 233 171 176 228 228 204 210 208 211 205 215 200 196 273 214 186 149 141
139 148 157 158 162 164 165 168 167 167 168 171 175 168 175 202 237 259 267 262 257 211 187 202 212 188 151 199 230 185 175 204 221 217 224 218 197 197 189 192 190 183 151
148 155 157 160 162 164 166 167 167 169 167 171 168 158 189 239 268 257 280 159 122 115 168 180 173 135 159 204 210 185 187 170 177 220 216 229 245 251 209 181 168 170 158
155 158 159 160 161 163 166 166 167 168 165 166 154 169 179 282 258 135 152 230 165 156 152 125 117 141 161 209 235 190 141 160 262 280 291 251 222 224 197 172 167 168 166
158 159 161 161 162 165 165 167 170 167 165 158 166 146 154 237 167 126 115 127 153 145 132 130 142 148 164 182 193 164 184 216 297 161 135 150 162 168 154 158 152 166 167
156 159 161 164 164 166 166 169 170 168 165 166 158 148 154 83 141 153 147 145 147 144 157 136 142 171 151 166 163 169 165 110 140 118 135 119 121 121 139 146 140 170 154
156 160 164 167 167 167 169 170 170 170 167 172 163 154 155 106 143 145 132 124 118 150 139 148 129 118 131 132 142 147 122 119 123 129 151 152 108 124 154 162 173 171 176
160 164 169 166 168 168 170 170 170 171 170 169 170 160 152 112 111 108 141 132 150 150 153 156 139 142 148 163 149 140 150 155 152 135 172 157 154 157 166 171 167 164 159
167 164 170 167 171 169 171 172 173 171 170 168 169 165 158 128 117 61 134 138 142 151 150 160 150 155 172 200 161 130 141 130 158 162 146 112 148 141 136 158 168 166 161
168 168 171 171 173 172 176 175 175 171 169 171 173 151 166 142 148 145 107 152 152 145 147 143 151 184 180 159 156 134 130 117 110 111 117 118 135 136 137 138 140 145 166
178 167 170 172 173 174 177 175 175 172 170 171 170 164 177 137 154 162 132 161 161 157 159 144 168 184 155 149 151 131 129 128 118 133 147 157 146 138 145 140 143 151 162
177 166 173 171 173 176 179 177 176 174 171 172 171 169 165 139 152 148 119 146 145 135 147 158 165 150 144 141 134 126 145 146 158 148 154 193 181 163 156 154 144 154 166
168 167 168 171 173 177 179 179 178 177 174 174 172 170 172 148 161 156 145 123 145 145 160 165 150 150 146 139 127 123 136 139 145 136 127 122 118 126 150 157 153 159 166
345 168 170 173 175 179 181 182 181 180 177 173 169 168 171 156 172 159 149 140 137 156 161 154 148 157 163 158 136 122 162 158 137 131 120 111 114 116 139 138 144 153 160
308 170 164 171 176 181 184 185 185 180 177 174 171 168 177 159 177 164 146 152 128 142 147 150 153 159 160 149 128 133 138 140 151 139 121 117 119 121 130 133 141 141 148
289 219 169 172 178 183 188 188 186 180 178 176 175 173 168 176 176 173 154 166 129 124 144 158 162 159 166 146 131 135 114 123 141 132 128 124 122 121 129 129 131 138 155
260 247 177 172 176 185 190 189 186 182 180 176 177 176 171 183 172 176 157 165 171 146 150 161 175 168 169 158 147 146 130 135 137 139 141 139 136 130 132 130 128 138 152
252 235 202 176 181 186 189 189 187 184 184 179 179 182 179 177 172 173 166 178 172 200 177 177 186 189 180 175 165 165 150 148 144 147 147 146 149 150 152 144 141 152 159
256 239 232 179 184 188 190 190 189 186 186 181 181 185 184 183 186 187 179 185 187 200 186 184 202 162 193 181 178 166 150 151 162 162 160 151 162 165 164 160 153 178 181